Regional Weather Roundup
Issued by NWS

Home | Current Version | Previous Version | Graphics & Text | Print | Product List | Glossary On
Versions: 1 2 3 4 5 6 7 8 9 10 11 12 13 14 15 16 17 18 19 20 21 22 23 24 25 26 27 28 29 30 31 32 33 34 35 36 37 38 39 40 41 42 43 44 45 46 47 48 49 50
000
ASUS43 KLSX 022307
RWRMO

WEATHER SUMMARY FOR MISSOURI
NATIONAL WEATHER SERVICE SPRINGFIELD MO
600 PM CDT MON MAY 02 2016

NOTE: "FAIR" INDICATES FEW OR NO CLOUDS BELOW 12,000 FEET WITH NO
       SIGNIFICANT WEATHER AND/OR OBSTRUCTIONS TO VISIBILITY.
       CURRENT SKY AND/OR WEATHER CONDITIONS ARE NOT AVAILABLE FOR
       CHILLICOTHE AND FARMINGTON.

MOZ001>031-035>038-043-044-053-054-030000-
...NORTHERN AND WESTERN MISSOURI...

CITY           SKY/WX    TMP DP  RH WIND       PRES   REMARKS
KANSAS CTY INT PTSUNNY   56  47  71 SW5       30.07S
KANSAS C DTWN  CLOUDY    56  46  69 CALM      30.07S
LEE`S SUMMIT   CLOUDY    53  47  79 SW5       30.07F
ST JOSEPH      CLOUDY    59  44  57 SW5       30.06S
CHILLICOTHE      N/A     59  43  55 CALM      30.06S
KIRKSVILLE     CLOUDY    53  47  79 E6        30.06R

$$
MOZ066>068-077>081-088>096-101>105-030000-
...SOUTHWEST MISSOURI...

CITY           SKY/WX    TMP DP  RH WIND       PRES   REMARKS
SPRINGFIELD    CLOUDY    53  44  71 NW6       30.05F
JOPLIN         CLOUDY    54  46  74 N6        30.08S
BRANSON        CLOUDY    54  48  82 NW6       30.05F

$$
MOZ032>034-039>042-045>050-055>058-069>072-030000-
...CENTRAL MISSOURI...

CITY           SKY/WX    TMP DP  RH WIND       PRES   REMARKS
COLUMBIA       CLOUDY    54  48  80 W7        30.05S
JEFFERSON CITY CLOUDY    54  48  80 W7        30.05F
ROLLA          CLOUDY    52  47  83 N6        30.02F
SEDALIA        CLOUDY    54  49  83 N6        30.07S
WHITEMAN AFB   CLOUDY    53  49  83 W2        30.06S
OSAGE BEACH    CLOUDY    54  39  58 W6        30.06S

$$
MOZ051-052-059>065-030000-
...EAST CENTRAL MISSOURI...

CITY           SKY/WX    TMP DP  RH WIND       PRES   REMARKS
ST LOUIS INTL  CLOUDY    57  48  72 NW8       30.02F
SPIRIT OF STL  CLOUDY    56  49  77 NW7       30.02F
ST CHARLES     CLOUDY    55  50  83 CALM      30.02F

$$
MOZ072>076-082>087-097>100-106>115-030000-
...SOUTH CENTRAL AND SOUTHEAST MISSOURI...

CITY           SKY/WX    TMP DP  RH WIND       PRES   REMARKS
CAPE GIRARDEAU PTSUNNY   63  50  62 N9        29.97F
FARMINGTON     CLOUDY    57  46  66 NW6       30.01S
POPLAR BLUFF   CLOUDY    66  51  58 N5        29.95F
WEST PLAINS    CLOUDY    59  45  59 NW10      30.02F

$$



USA.gov is the U.S. government's official web portal to all federal, state and local government web resources and services.